Regional Weather Roundup
Issued by NWS Wakefield, VA

Home | Current Version | Previous Version | Graphics & Text | Print | Product List | Glossary On
Versions: 1 2 3 4 5 6 7 8 9 10 11 12 13 14 15 16 17 18 19 20 21 22 23 24 25 26 27 28 29 30 31 32 33 34 35 36 37 38 39 40 41 42 43 44 45 46 47 48 49 50
000
ASUS41 KAKQ 211310
RWRAKQ

REGIONAL WEATHER ROUNDUP
NATIONAL WEATHER SERVICE WAKEFIELD VA
900 AM EDT MON JUL 21 2014

Note: "fair" indicates few or no clouds below 12,000 feet with no
significant weather and/or obstructions to visibility. * = Denotes
station may not report precipitation (e.g., rain,snow,etc.),
thunder or fog.

VAZ042-051-052>054-056-211400-
NORTHERN VIRGINIA

CITY           SKY/WX    TMP DP  RH WIND       PRES   REMARKS
WASH NATIONAL  CLOUDY    75  64  68 E5        30.19R
DULLES         CLOUDY    71  65  81 CALM      30.20R
FORT BELVOIR   PTSUNNY   73  66  78 SE5       30.20R
QUANTICO       CLOUDY    75  67  76 SE3       30.19R
FREDERICKSBRG* CLOUDY    76  69  80 SE5       30.18R
STAFFORD*      CLOUDY    74  74 100 E5        30.22S
WARRENTON      CLOUDY    73  73  98 E3        30.19R
CULPEPER*      CLOUDY   N/A N/A N/A CALM      30.19S
MANASSAS*      CLOUDY    72  70  94 CALM      30.20R
LEESBURG*      CLOUDY    72  70  94 CALM      30.21S
WINCHESTER     CLOUDY    73  70  88 SE6       30.19R
$$

VAZ048-049-060>072-079>083-211400-
CENTRAL AND SOUTH CENTRAL VIRGINIA...AND NORTH CENTRAL NORTH CAROLINA

CITY           SKY/WX    TMP DP  RH WIND       PRES   REMARKS
RICHMOND       CLOUDY    74  69  85 E5        30.18R
CHESTERFIELD*  CLOUDY    72  63  73 E5        30.19R
HANOVER        CLOUDY    73  69  87 E5        30.19R
TAPPAHANNOCK*  PTSUNNY   76  66  71 E8        30.19R
CHARLOTTSVILLE CLOUDY    72  68  87 N3        30.19R
ORANGE*        CLOUDY    73  70  88 E3        30.20S
LOUISA*        CLOUDY    73  70  88 CALM      30.18R
FARMVILLE*     LGT RAIN  72  70  94 NE3       30.15S
SOUTH HILL*    CLOUDY    73  73 100 CALM      30.20R FOG
ROANOKE RAPIDS CLOUDY    75  70  83 CALM      30.15R
RALEIGH        CLOUDY    75  71  87 CALM      30.14R
$$

VAZ088>098-211400-
SOUTHEAST VIRGINIA

CITY           SKY/WX    TMP DP  RH WIND       PRES   REMARKS
NORFOLK        CLOUDY    76  69  79 E6        30.16S
VIRGINIA BEACH CLOUDY    76  71  85 E6        30.16R
NORFOLK NAVAL  CLOUDY    76  71  85 E7        30.18R
WEST POINT*    CLOUDY    75  70  84 E3        30.19R
NEWPORT NEWS   CLOUDY    80  70  71 E6        30.17R
LANGLEY AFB    CLOUDY    77  73  87 E6        30.16S
FORT EUSTIS    CLOUDY    76  73  90 SE6       30.15R
WILLIAMSBURG*  CLOUDY    77  72  83 E5        30.17S
FRANKLIN*      CLOUDY    75  73  94 E5        30.16R
WAKEFIELD      CLOUDY    75  71  87 CALM      30.16S
$$

VAZ020-022-025-037-045-211400-
WESTERN AND SOUTHWEST VIRGINIA

CITY           SKY/WX    TMP DP  RH WIND       PRES   REMARKS
STAUNTON*      CLOUDY    71  64  79 W3        30.23R
HOT SPRINGS VA CLOUDY    61  60  96 SE6       30.31S FOG
LYNCHBURG      LGT RAIN  69  67  93 NE3       30.21R
DANVILLE       CLOUDY    74  70  87 NE7       30.16R
MARTINSVILLE   CLOUDY    73  70  90 N3        30.20R
ROANOKE        CLOUDY    70  67  90 N5        30.21R
BLACKSBURG     CLOUDY    70  70 100 E3        30.25R
DUBLIN*        CLOUDY    71  69  95 CALM      30.24R
MARION*        CLOUDY    69  68  96 NE6       30.25S
HILLSVILLE*    CLOUDY    69  65  89 CALM      30.24R
RICHLANDS*     MOSUNNY   73  66  77 CALM      30.21S
WISE*          SUNNY     72  61  68 SE3       30.22R
ABINGDON*      MOSUNNY   72  67  84 E8        30.18S
$$

MDZ021>025-VAZ099-100-211400-
SOUTHERN MARYLAND AND THE DELMARVA PENINSULA

CITY           SKY/WX    TMP DP  RH WIND       PRES   REMARKS
PATUXENT RIVER PTSUNNY   74  68  81 E7        30.19R
BAY BRIDGE APT   N/A     72  64  78 E6        30.19S
LEONARDTOWN    CLOUDY    72  64  78 E3        30.20R
DOVER          PTSUNNY   72  67  84 E6        30.19R
GEORGETOWN     MOSUNNY   73  66  78 E14       30.19S
EASTON         NOT AVBL
CAMBRIDGE      PTSUNNY   72  68  88 SE3       30.19S
SALISBURY      NOT AVBL
OCEAN CITY     PTSUNNY   72  67  84 NE7       30.18S
WALLOPS ISLAND CLOUDY    73  69  87 NE3       30.19S
ACCOMACK*        N/A     72  66  83 CALM      30.18R
$$

NCZ012>017-030>032-211400-
EASTERN NORTH CAROLINA

CITY           SKY/WX    TMP DP  RH WIND       PRES   REMARKS
ELIZABETH CITY CLOUDY    77  73  88 E8        30.16R
AHOSKIE*       CLOUDY    76  71  86 E3        30.15R
EDENTON*       MOSUNNY   80  71  74 E8        30.15R
CURRITUCK*     CLOUDY    78  71  81 E3        30.17S
KILL DEVIL HLS MOSUNNY   78  73  85 E7        30.15R
MANTEO         NOT AVBL
CAPE HATTERAS  CLOUDY    80  72  76 VRB7      30.14S
GOLDSBORO      CLOUDY    76  76  98 E3        30.11S
WASHINGTON     CLOUDY    76  71  83 SE5       30.14R
GREENVILLE     CLOUDY    77  72  83 SE3       30.15R
NEW BERN       CLOUDY    79  74  84 SE3       30.14S
WILMINGTON     LGT RAIN  81  76  84 SE6       30.10S
$$

VAZ048-211400-
ELSEWHERE

CITY           SKY/WX    TMP DP  RH WIND       PRES   REMARKS
HARRISBURG PA  CLOUDY    73  67  81 SE6       30.20R
BALTIMORE      PTSUNNY   74  64  71 E3        30.19R
ANNAPOLIS      MOSUNNY   73  65  75 NE6       30.19R
ANDREWS AFB    CLOUDY    72  67  84 SE6       30.20R
WILMINGTON DE  CLOUDY    72  64  76 E6        30.20S
PHILADELPHIA   MOSUNNY   74  62  66 VRB3      30.21S
WILDWOOD NJ*   SUNNY     72  64  78 NE6       30.21S
ATLANTIC CITY  SUNNY     72  66  81 NE3       30.20R
HENDERSON NC   CLOUDY    72  70  94 SE3       30.14S FOG
GREENSBORO     CLOUDY    73  70  90 NE5       30.15R
ROCKY MOUNT    CLOUDY    76  72  87 VRB3      30.14R
FAYETTEVILLE   PTSUNNY   77  74  90 E3        30.12R
CHARLOTTE      LGT RAIN  74  72  93 NE7       30.12R FOG
$$

VAZ100-211400-
MARINE

STATION/POSITION TIME  TEMP    WIND        PRES    WAVE   SWELL
                       AIR SEA DIR/SP/G            HT/PER HT/PER
                 (UTC) (F)     (DEG/KT/KT) (MB)    (FT/S) (FT/S)
44066 TX TWR #4  1300   69 72   10/ 14/ 16 1021.4R   4/ 6   3/ 7
CAPE MAY NJ      1300   72 72   60/  3/  5 1022.2S
LEWES DE         1300   69 71   30/  8/ 10 1021.8F
15NM E FENWICK I 1300   72 74              1022.0R   4/ 8
OCEAN-CITY-INLET 1300   70 68   20/  5/  7 1021.7F
WACHAPREAGUE VA  1300   72 76   60/  4/  5 1021.9R
THOMAS POINT MD  1300   71 79   90/  6/  7 1022.9R
GOOSES REEF MD   1300   71     120/  4/  6 1022.7R
COVE POINT MD    1300   71     160/  4/  6 1022.2R
SOLOMONS ISLAND  1300      80                N/A
BISHOPS HEAD MD  1300   71 75  100/  6/  7 1021.9S
PINEY POINT MD   1300          140/  6/  7   N/A
POTOMAC MD       1300   74     100/  6/  8 1021.1S
CAMBRIDGE MD     1300   69 80  120/  5/  7 1022.1R
LEWISETTA VA     1300   74 79   90/  5/  7 1021.6S
RAPPAHANNOCK LGT 1300           70/  7/  8 1022.1F
STINGRAY PT      1300   74     100/  6/  8 1020.9R
YORK RVR RNG VA  1300   75     100/  6/  8 1021.0R
YORKTOWN VA      1300   75 80   90/  8/ 10 1021.2R
JAMESTOWN VA     1300   74     110/  6/ 10   N/A
DOMINION TERM VA 1300   74      70/  7/ 10 1021.5R
KIPTOPEKE VA     1300      78  100/  6/ 11   N/A
CHES BAY BRIDGE  1300   73 72   50/ 10/ 11 1020.8R
CAPE HENRY VA    1300   74      60/  8/ 10 1020.2R
WILLOUBY STN VA  1300           90/  9/ 10 1020.7R
S CRANEY ISL VA  1300           50/  5/  6 1021.4R
CAPE HENRY BUOY  1300      76                N/A     3/ 7
1ST LANDING BUOY 1300   74      60/ 10/ 12 1021.1R
CAPE CHARLES BUO 1300      74                N/A     3/ 8
OFFSHORE WE BUOY 1300      76                N/A     4/ 8
64NM E OF VA BCH 1300   75 77   30/  6/  6 1021.1R   3/ 7   3/ 7
DUCK PIER NC     1300   76 76   80/  7/  8 1020.5S
44056 DUCK FRF   1300                        N/A     3/ 6
OREGON INLET NC  1300   77 78   70/  8/ 10 1021.0R
HATTERAS NC      1300   79 80   80/  6/  8 1021.0S
DIAMOND SHLS NC  1300          VRB 10/ 12  1020.5R   3/ 8   3/ 8
CAPE LOOKOUT NC  1200   80      80/  6/  6 1019.9R
$$


USA.gov is the U.S. government's official web portal to all federal, state and local government web resources and services.